Location: Newark
(45.9456°N, 15.4064°E)
Time: 23:34:16
(UTC+00:00)

Vanguard 3 - Pass Details

Date: 30 January 2020
Orbit: 508 x 3263 km, 33.3° (Epoch: 19 February)

Event Time Altitude Azimuth Distance (km) Brightness Sun altitude
Rises 20:46:25 0° 277° (W) 7,204 12.6 -48.7°
Reaches altitude 10° 20:52:29 10° 269° (W) 6,025 11.9 -49.6°
Enters shadow 21:05:52 28° 222° (SW) 3,957 10.5 -51.5°
Maximum altitude 21:06:10 28° 220° (SW) 3,933 - -51.6°
Drops below altitude 10° 21:16:08 10° 167° (SSE) 4,299 - -52.9°
Sets 21:19:37 0° 156° (SSE) 4,905 - -53.4°
